www.pogodaiklimat.ru

Погода и климат >> Архив погоды >> Парагвай >> Mariscal Estigar


ПОГОДА в Mariscal Estigar

  • Прогноз погоды в Mariscal Estigar
  • Монитор погоды в Mariscal Estigar
  • Климат города

АРХИВ ПОГОДЫ в Mariscal Estigar

Время (UTC), дата Ветер
(напр.,м/с)
 
Видим.   Явления Облачность Т
(С)
Тd
(С)
f
(%)
Тe
(С)
Тes
(С)
Комфортность P
(гПа)
Po
(гПа)
Тmin
(С)
Tmax
(С)
R
(мм)
R24
(мм)
S
(см)
15 9.07 Ю 7 20 км 10/8 300 м
[Cu Sc Ac As]
+12.6 +7.2 70 +10 +10 1034.0 1013.6
18 9.07 ЮЗ 7 20 км 10/10 450 м
[Sc]
+14.2 +5.2 55 +12 +12 1030.9 1010.6
21 9.07 Ю 6 20 км 9/8 500 м
[Sc Ac As]
+13.2 +3.9 53 +11 +11 1030.4 1010.0
00 10.07 штиль 0 20 км 10/10 300 м
[Sc]
+11.6 +6.0 68 +11 +11 1031.3 1010.8 +18.0
03 10.07 Ю 3 20 км 9/9 360 м
[Sc]
+10.4 +7.0 79 +9 +9 1031.6 1011.0
09 10.07 Ю 3 20 км 4/0 2000 м
[Ac trans]
+8.0 +6.0 87 +6 +6 1029.8 1009.1
12 10.07 штиль 0 20 км 3/0 2000 м
[Ac trans]
+7.0 +5.2 88 +6 +8 1031.5 1010.6 +4.8
15 10.07 ЮВ 4 20 км 3/3 1200 м
[Cu hum]
+14.6 +4.7 51 +14 +19 1029.5 1009.3
18 10.07 ЮВ 2 20 км 3/0
[Ci fib]
+18.0 +5.2 43 +19 +26 1025.4 1005.4
21 10.07 ЮВ 2 20 км 3/0
[Ci fib]
+18.0 +2.8 36 +19 +19 1023.7 1003.8
00 11.07 штиль 0 20 км ясно +9.0 +4.7 74 +8 +8 1024.8 1004.3 +18.8
03 11.07 штиль 0 20 км ясно +6.2 +3.9 85 +5 +5 1024.8 1004.1
09 11.07 штиль 0 20 км ясно +3.4 +2.7 95 +2 +2 1020.4 1001.6
12 11.07 штиль 0 20 км 6/0
[Cs]
+5.4 +4.7 95 +4 +6 1023.2 1002.4 +3.0
15 11.07 С 2 20 км 6/0
[Cs]
+17.0 +1.4 35 +18 +28 1022.0 1002.1
18 11.07 В 2 20 км 6/0
[Cs]
+22.2 +5.4 34 +23 +30 комфорт 1017.6 998.1
21 11.07 В 2 20 км 6/0
[Cs]
+21.8 +3.5 30 +22 +22 комфорт 1016.3 996.8
00 12.07 штиль 0 20 км 9/0 1500 м
[Ac As]
+14.8 +7.0 60 +15 +15 1019.8 999.8 +23.2
03 12.07 В 2 20 км 10/0 2000 м
[As trans]
+15.2 +6.8 57 +15 +15 1020.4 1000.7
09 12.07 штиль 0 20 км 10/0 1500 м
[As trans]
+13.8 +8.4 70 +14 +14 1018.0 998.0
12 12.07 штиль 0 20 км 9/0 1500 м
[Ac As]
+14.0 +9.9 76 +14 +15 1019.8 999.8 +5.5
15 12.07 штиль 0 20 км 9/0 1500 м
[Ac cuf]
+22.2 +16.0 68 +26 +32 душно 1020.0 1000.4
18 12.07 штиль 0 20 км 9/0 2000 м
[Ac trans Cs]
+24.2 +9.4 39 +25 +32 комфорт 1016.3 996.9
21 12.07 Ю 2 20 км 9/0 2000 м
[Ac trans Cs]
+24.0 +9.2 39 +25 +25 комфорт 1014.4 995.0
00 13.07 штиль 0 20 км 10/0 1500 м
[Ac As]
+18.2 +10.5 61 +18 +18 1017.9 997.1 +24.8
09 13.07 штиль 0 20 км ясно +11.6 +8.5 81 +11 +11 1016.7 996.5
12 13.07 штиль 0 20 км 8/0
[Cs]
+13.4 +11.1 86 +13 +15 1017.1 997.0 +5.8
15 13.07 СВ 2 20 км 6/0
[Ci]
+25.6 +14.2 49 +28 +38 жарко 1015.5 996.3
18 13.07 С 3 20 км 6/3 1200 м
[Cu hum Cs]
+28.8 +19.2 56 +34 +39 очень
душно
1012.6 993.7
21 13.07 штиль 0 20 км 8/0
[Cs]
+27.2 +15.2 48 +30 +30 душно 1010.9 991.8
00 14.07 штиль 0 20 км ясно +20.8 +14.3 66 +23 +23 комфорт 1013.2 993.7 +29.0
09 14.07 С 2 20 км ясно +14.6 +13.5 93 +14 +14 1011.0 991.1
12 14.07 СВ 2 20 км 5/0
[Ci]
+17.4 +14.8 85 +18 +19 1012.1 992.4 +13.4
15 14.07 С 8 20 км 4/0
[Ci]
+29.6 +17.5 48 +34 +36 очень
душно
1010.2 991.3
18 14.07 С 8 20 км 4/0
[Ci]
+32.2 +16.0 38 +35 +37 очень
душно
1007.0 988.4
00 15.07 СВ 2 20 км ясно +27.2 +15.7 49 +30 +30 душно 1006.0 987.0 +33.6
03 15.07 СВ 2 20 км ясно +26.2 +16.1 54 +30 +30 душно 1005.9 986.9
06 15.07 СВ 2 20 км ясно +25.4 +16.5 58 +29 +29 душно 1006.0 986.9
09 15.07 СВ 5 20 км ясно +24.4 +17.1 64 +28 +28 душно 1004.6 985.4
12 15.07 С 8 20 км 3/0 2000 м
[Ac trans]
+24.4 +17.2 64 +28 +29 душно 1006.0 986.8 +17.4
15 15.07 С 9 20 км 1/0 2000 м
[Ac trans]
+31.6 +18.0 44 +36 +37 очень
душно
1005.6 987.0
21 15.07 С 7 20 км ясно +36.2 +15.0 28 +37 +38 очень
жарко
1004.7 986.3
00 16.07 С 5 20 км ясно +29.8 +15.4 42 +33 +33 душно 1008.0 989.2 +36.5
06 16.07 СВ 2 20 км ясно +22.6 +16.7 69 +27 +27 душно 1011.4 992.1

 

Местоположение метеостанции Mariscal Estigar (Парагвай): широта -22.01 долгота -60.60 высота над уровнем моря 172 м.

В архиве по умолчанию представлена погода в Mariscal Estigar за последнюю неделю. Архивные данные за месяц целиком и за предыдущие месяцы, начиная с января 2011 года, Вы можете получить, выбрав интересующий диапазон дат из раскрывающегося списка и нажав кнопку "Ввод!".


*Определитесь, кто Вы:
робот инопланетянин человек

Внимание! Время в таблицах - всемирное. Для получения местного времени необходимо прибавить поправку, которая в Mariscal Estigar равна -4 ч.

Смотрите также архив погоды в соседних городах и на ближайших метеорологических станциях:

Погода в Prats-Gil (Парагвай) (120 км)
Погода в Pozo Colorado (Парагвай) (232 км)
Погода в Puerto Casado (Парагвай) (284 км)
Погода в Las Lomitas (Аргентина) (299 км)
Погода в Villamontes (Боливия) (307 км)
Погода в Yacuiba (Боливия) (315 км)
Погода в Tartagal (Аргентина) (336 км)
Погода в Gral. Bruguez (Парагвай) (355 км)
Погода в Concepcion (Парагвай) (373 км)
Погода в Camiri (Боливия) (378 км)

Пояснения к столбцам:

Ветер - указаны скорость ветра в м/с - средняя за 10 мин, порывы в срок и между сроками (в фигурных скобках) и направление, откуда дует ветер: С - северный, СВ - северо-восточный, В - восточный, ЮВ - юго-восточный, Ю - южный, ЮЗ - юго-западный, З - западный, СЗ - северо-западный.
Видимость - горизонтальная дальность видимости в метрах или километрах. При видимости от 1 до 10 км при отсутствии осадков обычно наблюдается дымка, при ухудшении видимости до 1 км и менее - туман. В сухую погоду видимость может ухудшаться дымом, пылью или мглою.
Явления - указаны атмосферные явления, наблюдавшиеся в срок или в последний час перед сроком; фигурными скобками обозначены явления, наблюдавшиеся между сроками (за 1-3 часа до срока); квадратными скобками обозначены град или гололедные отложения с указанием их диаметра в мм.
Облачность - указаны через наклонную черту общая и нижняя облачность в баллах и высота нижней границы облаков в метрах; квадратными скобками обозначены формы облаков: Ci - перистые, Cs - перисто-слоистые, Cc - перисто-кучевые, Ac - высококучевые, As - высокослоистые, Sc - слоисто-кучевые, Ns - слоисто-дождевые, Cu - кучевые, Cb - кучево-дождевые. Подробнее классификацию облаков см. в Атласе облаков (PDF).
T - Температура воздуха - температура, измеренная на высоте 2 м над землей.
Td - Температура точки росы - температура, при понижении до которой содержащийся в воздухе водяной пар достигнет насыщения.
f - Относительная влажность воздуха - влажноcть воздуха, измеренная на высоте 2 м над землей.
Te - Эффективная температура - температура, которую ощущает одетый по сезону человек в тени. Характеристика душности погоды. При расчете учитывается влияние влажности воздуха и скорости ветра на теплоощущения человека.
Tes - Эффективная температура на солнце - температура, которую ощущает человек, с поправкой на солнечный нагрев. Характеристика знойности погоды. Зависит от высоты солнца над горизонтом, облачности и скорости ветра. Ночью, в пасмурную погоду, а также при ветре 12 м/с и более поправка равна нулю.
P - Атмосферное давление - приведенное к уровню моря атмосферное давление.
Po - Атмосферное давление - измеренное на уровне метеостанции атмосферное давление.
Tmin - Минимальная температура - минимум температуры воздуха на высоте 2 м над землей.
Tmax - Максимальная температура - максимум температуры воздуха на высоте 2 м над землей.
R - Количество осадков - Количество выпавших осадков за период времени, мм. При наведении курсора мыши на число - период времени, за который выпало указанное количество осадков.
R24 - Количество осадков - Количество выпавших осадков за 24 часа, мм.
S - Снежный покров - Высота снежного покрова, см. При наведении курсора мыши на число - состояние снежного покрова и степень покрытия местности в баллах.